period_start,C,m1,H,J0,J1,J2,J3,J4,J5,JA,JB,JC,JD,JJ,JK,JN,#
2014-10-26 00:00:03,0.02,0.71,0.00,23.42,27.50,30.22,4.87,26.84,1034.68,2033.99,3141.04,3124.04,3369.00,350.11,353.36,17.84,0000 0000 0000 0000 000000
2014-10-26 00:05:04,0.00,0.71,0.00,23.41,27.50,30.22,4.90,26.93,1034.70,2033.99,3140.99,3124.00,3368.98,350.28,353.50,17.87,0000 0000 0000 0000 000000
2014-10-26 00:10:06,0.03,0.71,0.00,23.42,27.50,30.21,4.84,26.82,1034.70,2033.99,3140.66,3124.00,3368.66,349.53,352.83,17.89,0000 0000 0000 0000 000000
2014-10-26 00:15:07,0.02,0.71,0.00,23.41,27.50,30.20,4.81,26.88,1034.70,2033.99,3140.05,3123.90,3368.08,349.35,352.55,17.92,0000 0000 0000 0000 000000
2014-10-26 00:20:08,0.03,0.71,0.00,23.41,27.50,30.21,4.84,26.90,1034.70,2033.99,3139.96,3123.32,3368.00,349.80,353.14,17.95,0000 0000 0000 0000 000000
2014-10-26 00:25:10,0.03,0.71,0.00,23.40,27.50,30.21,4.88,26.74,1034.71,2033.99,3139.28,3123.01,3367.89,349.95,353.24,17.98,0000 0000 0000 0000 000000
2014-10-26 00:30:11,0.01,0.71,0.00,23.42,27.50,30.22,4.89,26.83,1034.70,2033.99,3138.99,3123.00,3367.45,349.84,353.22,18.01,0000 0000 0000 0000 000000
2014-10-26 00:35:12,0.04,0.71,0.00,23.41,27.50,30.18,4.84,26.86,1034.71,2033.99,3138.57,3122.87,3367.06,350.48,353.67,18.04,0000 0000 0000 0000 000000
2014-10-26 00:40:13,0.05,0.71,0.00,23.41,27.50,30.18,4.85,26.93,1034.72,2033.99,3138.00,3122.10,3366.94,349.75,353.14,18.07,0000 0000 0000 0000 000000
2014-10-26 00:45:14,0.04,0.71,0.00,23.41,27.50,30.20,4.82,26.82,1034.73,2033.99,3137.47,3122.00,3366.31,349.54,352.96,18.10,0000 0000 0000 0000 000000
2014-10-26 00:50:16,0.00,0.71,0.00,23.41,27.49,30.19,4.88,26.86,1034.70,2033.99,3137.01,3121.98,3366.03,350.03,353.35,18.13,0000 0000 0000 0000 000000
2014-10-26 00:55:17,0.01,0.71,0.00,23.43,27.48,30.19,4.86,26.96,1034.70,2033.99,3136.94,3121.78,3366.00,349.72,353.23,18.16,0000 0000 0000 0000 000000
2014-10-26 01:00:18,0.05,0.72,0.00,23.42,27.48,30.20,4.80,26.87,1034.70,2033.99,3136.25,3121.22,3365.91,349.34,352.56,18.19,0000 0000 0000 0000 000000
2014-10-26 01:05:19,0.02,0.72,0.00,23.43,27.48,30.18,4.90,26.92,1034.70,2033.99,3135.99,3121.01,3365.31,350.19,353.55,18.22,0000 0000 0000 0000 000000
2014-10-26 01:10:21,0.02,0.72,0.00,23.42,27.48,30.20,4.85,26.75,1034.71,2034.02,3135.76,3121.00,3365.05,350.08,353.34,18.25,0000 0000 0000 0000 000000
2014-10-26 01:15:22,0.01,0.72,0.00,23.42,27.47,30.18,4.87,26.76,1034.70,2034.01,3135.04,3120.98,3365.00,349.95,353.47,18.28,0000 0000 0000 0000 000000
2014-10-26 01:20:23,0.01,0.72,0.00,23.44,27.48,30.19,4.89,26.88,1034.70,2034.00,3135.00,3120.75,3364.95,350.42,353.77,18.30,0000 0000 0000 0000 000000
2014-10-26 01:25:24,0.06,0.72,0.00,23.45,27.47,30.18,4.83,26.71,1034.69,2034.00,3134.69,3120.10,3364.37,349.63,352.96,18.33,0000 0000 0000 0000 000000
2014-10-26 01:30:26,0.01,0.72,0.00,23.45,27.47,30.19,4.86,26.80,1034.70,2034.00,3134.03,3120.00,3364.01,349.97,353.38,18.36,0000 0000 0000 0000 000000
2014-10-26 01:35:27,0.00,0.72,0.00,23.45,27.47,30.19,4.87,26.86,1034.70,2034.01,3133.94,3119.98,3363.99,350.03,353.36,18.39,0000 0000 0000 0000 000000
2014-10-26 01:40:28,0.05,0.72,0.00,23.45,27.47,30.20,4.93,27.07,1034.70,2034.00,3133.13,3119.65,3363.71,350.21,353.72,18.42,0000 0000 0000 0000 000000
2014-10-26 01:45:29,0.04,0.72,0.00,23.44,27.47,30.16,4.86,26.77,1034.72,2034.01,3133.01,3119.21,3363.19,350.19,353.32,18.45,0000 0000 0000 0000 000000
2014-10-26 01:50:31,0.02,0.72,0.00,23.45,27.47,30.16,4.90,26.73,1034.71,2034.01,3132.70,3119.01,3363.01,350.54,353.99,18.48,0000 0000 0000 0000 000000
2014-10-26 01:55:31,0.01,0.73,0.00,23.45,27.47,30.16,4.93,26.87,1034.72,2034.01,3132.05,3118.99,3362.98,350.49,353.69,18.51,0000 0000 0000 0000 000000
2014-10-26 02:00:32,0.02,0.73,0.00,23.45,27.47,30.18,4.90,26.73,1034.75,2034.00,3131.98,3118.88,3362.56,350.39,353.61,18.54,0000 0000 0000 0000 000000
2014-10-26 02:05:33,0.06,0.73,0.00,23.44,27.47,30.16,4.87,26.83,1034.74,2034.00,3131.36,3118.23,3362.03,350.03,353.52,18.57,0000 0000 0000 0000 000000
2014-10-26 02:10:34,0.01,0.73,0.00,23.47,27.47,30.16,4.90,26.88,1034.71,2034.03,3131.01,3118.05,3362.00,349.91,353.29,18.60,0000 0000 0000 0000 000000
2014-10-26 02:15:35,0.00,0.73,0.00,23.45,27.47,30.19,4.87,26.79,1034.74,2034.01,3130.94,3118.00,3361.98,349.55,352.93,18.63,0000 0000 0000 0000 000000
2014-10-26 02:20:36,0.03,0.73,0.00,23.44,27.47,30.16,4.86,26.82,1034.74,2034.01,3130.35,3117.99,3361.74,349.97,353.34,18.66,0000 0000 0000 0000 000000
2014-10-26 02:25:38,0.03,0.73,0.00,23.46,27.47,30.15,4.81,26.86,1034.75,2034.01,3130.01,3117.83,3361.13,349.75,353.23,18.69,0000 0000 0000 0000 000000
2014-10-26 02:30:39,0.04,0.73,0.00,23.47,27.47,30.16,4.82,26.76,1034.71,2034.03,3129.67,3117.17,3361.00,349.71,353.15,18.71,0000 0000 0000 0000 000000
2014-10-26 02:35:40,0.02,0.73,0.00,23.47,27.47,30.16,4.87,26.93,1034.71,2034.03,3129.08,3117.01,3360.96,350.44,353.46,18.74,0000 0000 0000 0000 000000
2014-10-26 02:40:41,0.02,0.73,0.00,23.49,27.46,30.15,4.84,26.88,1034.75,2034.00,3128.90,3116.98,3360.25,350.49,353.54,18.77,0000 0000 0000 0000 000000
2014-10-26 02:45:42,0.03,0.73,0.00,23.47,27.45,30.16,4.87,26.82,1034.77,2034.03,3128.39,3116.91,3360.01,349.96,353.22,18.80,0000 0000 0000 0000 000000
2014-10-26 02:50:43,0.03,0.73,0.00,23.47,27.45,30.15,4.79,26.75,1034.75,2034.01,3128.01,3116.36,3360.00,349.36,352.62,18.83,0000 0000 0000 0000 000000
2014-10-26 02:55:44,0.02,0.74,0.00,23.47,27.45,30.15,4.86,26.80,1034.73,2034.02,3127.92,3116.05,3359.97,349.56,352.95,18.86,0000 0000 0000 0000 000000
2014-10-26 03:00:46,0.04,0.74,0.00,23.46,27.45,30.13,4.90,26.83,1034.73,2034.04,3127.21,3116.00,3359.45,350.03,353.28,18.89,0000 0000 0000 0000 000000
2014-10-26 03:05:47,0.00,0.74,0.00,23.46,27.45,30.13,4.83,26.77,1034.73,2034.02,3127.00,3115.99,3359.02,349.68,353.04,18.92,0000 0000 0000 0000 000000
2014-10-26 03:10:48,0.04,0.74,0.00,23.47,27.45,30.13,4.89,26.86,1034.72,2034.02,3126.55,3115.75,3358.99,350.58,353.85,18.95,0000 0000 0000 0000 000000
2014-10-26 03:15:49,0.03,0.74,0.00,23.46,27.45,30.13,4.84,26.88,1034.71,2034.04,3126.03,3115.22,3358.93,349.80,353.27,18.98,0000 0000 0000 0000 000000
2014-10-26 03:20:51,0.04,0.74,0.00,23.47,27.45,30.12,4.91,26.80,1034.71,2034.07,3125.94,3115.01,3358.21,350.16,353.46,19.01,0000 0000 0000 0000 000000
2014-10-26 03:25:52,0.02,0.74,0.00,23.46,27.45,30.10,4.90,26.84,1034.72,2034.07,3125.38,3114.99,3358.00,349.90,353.22,19.04,0000 0000 0000 0000 000000
2014-10-26 03:30:53,0.00,0.74,0.00,23.46,27.44,30.12,4.85,26.86,1034.70,2034.04,3125.01,3114.95,3358.00,350.04,353.16,19.07,0000 0000 0000 0000 000000
2014-10-26 03:35:54,0.05,0.74,0.00,23.46,27.44,30.12,4.83,26.94,1034.70,2034.04,3124.81,3114.52,3357.81,349.91,353.43,19.10,0000 0000 0000 0000 000000
2014-10-26 03:40:56,0.05,0.74,0.00,23.47,27.43,30.12,4.84,26.88,1034.70,2034.05,3124.05,3114.04,3357.11,349.68,353.10,19.12,0000 0000 0000 0000 000000
2014-10-26 03:45:57,-0.00,0.74,0.00,23.46,27.43,30.09,4.77,26.84,1034.70,2034.05,3123.99,3114.00,3357.01,349.61,353.03,19.15,0000 0000 0000 0000 000000
2014-10-26 03:50:58,0.02,0.74,0.00,23.46,27.42,30.09,4.86,26.94,1034.71,2034.03,3123.35,3113.98,3356.99,350.17,353.13,19.18,0000 0000 0000 0000 000000
2014-10-26 03:56:00,0.02,0.74,0.00,23.45,27.42,30.06,4.75,26.79,1034.73,2034.05,3123.03,3113.84,3356.83,349.45,352.88,19.21,0000 0000 0000 0000 000000
2014-10-26 04:01:01,0.04,0.75,0.00,23.46,27.42,30.07,4.79,26.84,1034.72,2034.10,3122.98,3113.42,3356.32,350.03,353.32,19.24,0000 0000 0000 0000 000000
2014-10-26 04:06:02,0.03,0.75,0.00,23.47,27.42,30.08,4.89,26.77,1034.76,2034.08,3122.62,3113.03,3356.01,350.68,354.03,19.27,0000 0000 0000 0000 000000
2014-10-26 04:11:03,0.01,0.75,0.00,23.43,27.42,30.09,4.82,26.88,1034.76,2034.07,3122.02,3113.00,3355.99,349.84,353.07,19.30,0000 0000 0000 0000 000000
2014-10-26 04:16:05,0.01,0.75,0.00,23.43,27.42,30.10,4.81,26.92,1034.77,2034.07,3121.99,3112.99,3355.91,349.58,352.82,19.33,0000 0000 0000 0000 000000
2014-10-26 04:21:06,0.06,0.75,0.00,23.42,27.42,30.10,4.85,26.82,1034.89,2034.15,3121.38,3112.82,3355.33,350.06,353.54,19.36,0000 0000 0000 0000 000000
2014-10-26 04:26:07,0.04,0.75,0.00,23.40,27.42,30.12,4.79,26.89,1034.87,2034.19,3121.01,3112.19,3355.01,349.47,352.80,19.39,0000 0000 0000 0000 000000
2014-10-26 04:31:09,0.00,0.75,0.00,23.37,27.42,30.10,4.91,26.93,1034.92,2034.13,3120.68,3112.01,3354.99,350.24,353.59,19.42,0000 0000 0000 0000 000000
2014-10-26 04:36:10,0.03,0.75,0.00,23.37,27.42,30.09,4.85,26.98,1035.00,2034.16,3120.04,3111.98,3354.63,350.14,353.73,19.45,0000 0000 0000 0000 000000
2014-10-26 04:41:12,0.01,0.75,0.00,23.37,27.42,30.11,4.82,26.95,1035.03,2034.09,3119.86,3111.81,3354.04,349.18,352.68,19.48,0000 0000 0000 0000 000000
2014-10-26 04:46:13,0.05,0.75,0.00,23.36,27.42,30.11,4.80,26.81,1035.07,2034.14,3119.32,3111.29,3354.00,349.71,353.28,19.51,0000 0000 0000 0000 000000
2014-10-26 04:51:14,0.04,0.76,0.00,23.37,27.42,30.10,4.92,26.89,1035.14,2034.24,3119.01,3111.02,3353.97,350.13,353.66,19.53,0000 0000 0000 0000 000000
2014-10-26 04:56:15,0.01,0.76,0.00,23.36,27.42,30.09,4.85,26.93,1035.15,2034.32,3118.91,3111.01,3353.71,350.12,353.59,19.56,0000 0000 0000 0000 000000
2014-10-26 05:01:17,0.02,0.76,0.00,23.36,27.42,30.13,4.84,26.94,1035.13,2034.16,3118.15,3110.98,3353.07,350.04,353.56,19.59,0000 0000 0000 0000 000000
2014-10-26 05:06:17,0.02,0.76,0.00,23.38,27.42,30.11,4.86,26.85,1035.09,2034.06,3117.97,3110.26,3352.97,349.95,353.56,19.62,0000 0000 0000 0000 000000
2014-10-26 05:11:19,0.04,0.76,0.00,23.39,27.42,30.12,4.90,26.94,1035.02,2034.07,3117.34,3110.01,3352.61,349.78,353.35,19.65,0000 0000 0000 0000 000000
2014-10-26 05:16:20,0.02,0.76,0.00,23.42,27.42,30.13,4.88,26.90,1034.93,2034.06,3116.99,3110.00,3352.06,350.17,353.60,19.68,0000 0000 0000 0000 000000
2014-10-26 05:21:21,0.01,0.76,0.00,23.42,27.42,30.15,4.89,26.84,1034.89,2034.06,3116.75,3109.94,3352.00,350.09,353.65,19.71,0000 0000 0000 0000 000000
2014-10-26 05:26:22,0.05,0.76,0.00,23.39,27.42,30.14,4.85,26.89,1034.86,2034.08,3116.07,3109.54,3351.98,350.28,353.75,19.74,0000 0000 0000 0000 000000
2014-10-26 05:31:23,0.02,0.76,0.00,23.38,27.42,30.15,4.90,26.75,1034.81,2034.04,3116.00,3109.05,3351.64,350.16,353.45,19.77,0000 0000 0000 0000 000000
2014-10-26 05:36:25,0.05,0.76,0.00,23.39,27.42,30.14,4.85,26.95,1034.73,2034.13,3115.67,3109.00,3351.13,349.82,353.37,19.80,0000 0000 0000 0000 000000
2014-10-26 05:41:26,0.01,0.76,0.00,23.42,27.42,30.16,4.88,26.87,1034.72,2034.10,3115.03,3108.98,3351.00,350.31,353.74,19.83,0000 0000 0000 0000 000000
2014-10-26 05:46:27,0.01,0.76,0.00,23.43,27.42,30.15,4.83,26.74,1034.71,2034.18,3114.98,3108.96,3350.99,349.73,353.06,19.86,0000 0000 0000 0000 000000
2014-10-26 05:51:28,0.05,0.76,0.00,23.39,27.42,30.14,4.91,26.87,1034.72,2034.20,3114.60,3108.55,3350.82,350.03,353.30,19.89,0000 0000 0000 0000 000000
2014-10-26 05:56:30,0.02,0.77,0.00,23.39,27.42,30.13,4.89,26.99,1034.71,2034.08,3114.01,3108.03,3350.09,350.07,353.29,19.92,0000 0000 0000 0000 000000
2014-10-26 06:01:31,0.03,0.77,0.00,23.40,27.42,30.15,4.90,26.88,1034.73,2034.11,3113.91,3108.00,3350.00,350.35,353.53,19.95,0000 0000 0000 0000 000000
2014-10-26 06:06:32,0.01,0.77,0.00,23.40,27.42,30.15,4.84,26.81,1034.70,2034.07,3113.27,3107.99,3349.96,350.05,353.46,19.97,0000 0000 0000 0000 000000
2014-10-26 06:11:33,0.05,0.77,0.00,23.37,27.42,30.13,4.80,26.97,1034.70,2034.04,3113.01,3107.50,3349.32,349.66,353.11,20.00,0000 0000 0000 0000 000000
2014-10-26 06:16:34,0.02,0.77,0.00,23.40,27.42,30.14,4.82,26.92,1034.71,2034.04,3112.78,3107.03,3349.01,349.68,353.06,20.03,0000 0000 0000 0000 000000
2014-10-26 06:21:35,0.01,0.77,0.00,23.42,27.42,30.15,4.90,26.93,1034.74,2034.04,3112.07,3107.00,3348.98,349.70,353.18,20.06,0000 0000 0000 0000 000000
2014-10-26 06:26:36,0.01,0.77,0.00,23.41,27.42,30.15,4.82,26.86,1034.75,2034.03,3112.00,3106.99,3348.72,349.50,352.85,20.09,0000 0000 0000 0000 000000
2014-10-26 06:31:37,0.04,0.77,0.00,23.37,27.42,30.14,4.91,26.92,1034.88,2034.03,3111.73,3106.83,3348.14,349.95,353.44,20.12,0000 0000 0000 0000 000000
2014-10-26 06:36:39,0.04,0.77,0.00,23.38,27.42,30.14,4.83,27.05,1034.88,2034.02,3111.47,3106.18,3348.00,349.69,353.19,20.15,0000 0000 0000 0000 000000
2014-10-26 06:41:40,0.01,0.77,0.00,23.41,27.42,30.14,4.86,26.85,1034.85,2034.01,3111.02,3106.01,3347.93,349.92,353.45,20.18,0000 0000 0000 0000 000000
2014-10-26 06:46:41,0.02,0.77,0.00,23.40,27.42,30.14,4.85,26.89,1035.03,2034.00,3110.92,3105.99,3347.24,350.14,353.52,20.21,0000 0000 0000 0000 000000
2014-10-26 06:51:42,0.02,0.77,0.00,23.38,27.42,30.15,4.81,26.84,1035.06,2034.00,3110.25,3105.93,3347.02,349.57,353.04,20.24,0000 0000 0000 0000 000000
2014-10-26 06:56:43,0.03,0.78,0.00,23.38,27.42,30.16,4.91,26.81,1034.97,2034.00,3109.99,3105.25,3346.99,350.28,353.68,20.27,0000 0000 0000 0000 000000
2014-10-26 07:01:44,0.03,0.78,0.00,23.36,27.42,30.15,4.90,26.84,1034.81,2034.00,3109.55,3105.03,3346.80,350.56,353.86,20.30,0000 0000 0000 0000 000000
2014-10-26 07:06:45,0.02,0.78,0.00,23.34,27.42,30.15,4.84,26.83,1034.88,2034.00,3109.01,3105.00,3346.21,349.32,352.71,20.33,0000 0000 0000 0000 000000
2014-10-26 07:11:47,-0.01,0.78,0.00,23.34,27.42,30.12,4.89,26.85,1034.95,2034.00,3109.35,3105.00,3346.00,350.18,353.78,20.35,0000 0000 0000 0000 000000
2014-10-26 07:16:48,0.01,0.78,0.00,23.37,27.42,30.17,4.87,26.90,1035.07,2034.00,3109.05,3104.94,3345.98,349.85,353.40,20.38,0000 0000 0000 0000 000000
2014-10-26 07:21:49,0.05,0.78,0.00,23.33,27.42,30.14,4.86,26.84,1035.16,2034.00,3108.90,3104.53,3345.62,349.86,353.58,20.41,0000 0000 0000 0000 000000
2014-10-26 07:26:50,0.04,0.78,0.00,23.32,27.42,30.17,4.87,26.82,1035.17,2033.99,3108.15,3104.05,3345.08,349.90,353.51,20.44,0000 0000 0000 0000 000000
2014-10-26 07:31:52,0.00,0.78,0.00,23.35,27.42,30.16,4.81,26.76,1035.17,2033.99,3107.99,3104.00,3345.01,349.78,353.40,20.47,0000 0000 0000 0000 000000
2014-10-26 07:36:53,0.01,0.78,0.00,23.35,27.41,30.17,4.79,26.93,1035.17,2033.99,3107.78,3104.00,3345.00,349.63,353.35,20.50,0000 0000 0000 0000 000000
2014-10-26 07:41:54,0.02,0.78,0.00,23.32,27.40,30.15,4.86,26.87,1035.17,2033.99,3107.04,3103.96,3344.96,349.96,353.60,20.53,0000 0000 0000 0000 000000
2014-10-26 07:46:56,0.05,0.78,0.00,23.33,27.40,30.14,4.88,26.84,1035.17,2033.99,3106.90,3103.47,3344.54,350.09,353.72,20.56,0000 0000 0000 0000 000000
2014-10-26 07:51:57,0.04,0.78,0.00,23.35,27.40,30.18,4.81,26.84,1035.17,2033.99,3106.27,3103.03,3344.03,350.27,353.91,20.59,0000 0000 0000 0000 000000
2014-10-26 07:56:58,0.00,0.78,0.00,23.31,27.40,30.18,4.91,26.92,1035.17,2033.99,3106.02,3103.00,3344.00,349.88,353.38,20.62,0000 0000 0000 0000 000000
2014-10-26 08:02:00,0.02,0.78,0.00,23.30,27.40,30.19,4.86,26.87,1035.17,2033.99,3105.70,3102.92,3343.76,349.84,353.36,20.65,0000 0000 0000 0000 000000
2014-10-26 08:07:01,0.06,0.79,0.00,23.31,27.40,30.19,4.98,27.14,1035.17,2033.99,3105.24,3102.38,3343.06,350.86,354.53,20.68,0000 0000 0000 0000 000000
2014-10-26 08:12:02,0.01,0.79,0.00,23.27,27.40,30.20,4.90,27.10,1035.17,2033.98,3104.95,3102.01,3342.99,350.38,353.88,20.71,0000 0000 0000 0000 000000
2014-10-26 08:17:04,0.02,0.79,0.00,23.27,27.40,30.18,4.89,27.00,1035.17,2033.98,3104.25,3102.00,3342.86,349.98,353.53,20.74,0000 0000 0000 0000 000000
2014-10-26 08:22:05,0.02,0.79,0.00,23.33,27.40,30.20,4.74,26.91,1035.17,2033.98,3104.02,3101.95,3342.19,349.42,353.01,20.76,0000 0000 0000 0000 000000
2014-10-26 08:27:06,0.04,0.79,0.00,23.29,27.40,30.20,4.78,26.88,1035.17,2033.98,3103.90,3101.34,3342.00,349.62,353.08,20.79,0000 0000 0000 0000 000000
2014-10-26 08:32:08,0.03,0.79,0.00,23.26,27.40,30.18,4.89,26.84,1035.17,2033.96,3103.11,3101.02,3341.97,350.08,353.84,20.82,0000 0000 0000 0000 000000
2014-10-26 08:37:09,0.02,0.79,0.00,23.27,27.40,30.19,4.85,27.04,1035.17,2033.96,3102.83,3100.99,3341.41,350.01,353.69,20.85,0000 0000 0000 0000 000000
2014-10-26 08:42:10,0.03,0.79,0.00,23.29,27.40,30.20,4.85,26.85,1035.17,2033.94,3102.06,3100.86,3341.01,350.41,353.90,20.88,0000 0000 0000 0000 000000
2014-10-26 08:47:12,0.03,0.79,0.00,23.27,27.40,30.16,4.86,26.94,1035.17,2033.95,3101.97,3100.34,3341.00,350.01,353.87,20.91,0000 0000 0000 0000 000000
2014-10-26 08:52:13,0.04,0.79,0.00,23.28,27.41,30.17,4.93,26.99,1035.17,2033.96,3101.41,3100.01,3340.83,350.12,353.86,20.94,0000 0000 0000 0000 000000
2014-10-26 08:57:14,0.02,0.80,0.00,23.26,27.42,30.14,4.84,26.94,1035.17,2033.95,3101.01,3100.00,3340.14,349.79,353.43,20.97,0000 0000 0000 0000 000000
2014-10-26 09:02:15,0.02,0.80,0.00,23.25,27.42,30.20,4.88,26.93,1035.17,2033.95,3100.67,3099.88,3340.00,350.11,353.96,21.00,0000 0000 0000 0000 000000
2014-10-26 09:07:17,0.04,0.80,0.00,23.28,27.42,30.20,4.94,26.98,1035.17,2033.95,3100.11,3099.32,3339.89,350.47,353.92,21.03,0000 0000 0000 0000 000000
2014-10-26 09:12:18,0.05,0.80,0.00,23.31,27.42,30.20,4.86,26.84,1035.17,2033.87,3099.73,3098.86,3339.02,350.06,353.64,21.06,0000 0000 0000 0000 000000
2014-10-26 09:17:19,0.13,0.80,0.00,23.28,27.43,30.21,4.82,26.88,1035.17,2033.56,3097.96,3097.60,3337.69,350.09,353.96,21.09,0000 0000 0000 0000 000000
2014-10-26 09:22:20,0.13,0.81,0.00,23.26,27.45,30.16,4.91,26.87,1035.17,2033.40,3095.91,3096.18,3336.15,350.44,354.19,21.12,0000 0000 0000 0000 000000
2014-10-26 09:27:22,0.09,0.81,0.00,23.28,27.45,30.20,4.92,26.98,1035.17,2033.30,3094.40,3095.10,3335.04,350.03,353.85,21.15,0000 0000 0000 0000 000000
2014-10-26 09:32:23,0.07,0.81,0.00,23.31,27.45,30.17,4.88,26.93,1035.17,2033.20,3093.42,3094.68,3334.51,350.37,353.84,21.18,0000 0000 0000 0000 000000
2014-10-26 09:37:24,-0.00,0.81,0.00,23.25,27.46,30.15,4.90,26.98,1035.12,2033.10,3092.91,3094.03,3334.00,350.10,353.74,21.20,0000 0000 0000 0000 000000
2014-10-26 09:42:25,0.04,0.81,0.00,23.26,27.47,30.21,4.88,26.84,1035.05,2033.07,3092.16,3093.98,3333.92,350.30,353.96,21.23,0000 0000 0000 0000 000000
2014-10-26 09:47:26,0.04,0.81,0.00,23.28,27.47,30.21,4.89,26.89,1034.93,2033.07,3092.00,3093.70,3333.23,350.00,353.76,21.26,0000 0000 0000 0000 000000
2014-10-26 09:52:28,0.03,0.82,0.00,23.27,27.48,30.26,4.86,26.86,1034.95,2033.04,3091.46,3093.05,3332.99,349.91,353.33,21.29,0000 0000 0000 0000 000000
2014-10-26 09:57:29,0.02,0.82,0.00,23.26,27.50,30.28,4.90,26.87,1035.11,2033.00,3090.99,3092.98,3332.50,350.41,354.27,21.32,0000 0000 0000 0000 000000
2014-10-26 10:02:30,0.07,0.82,0.00,23.25,27.50,30.29,4.89,26.76,1035.11,2033.01,3090.24,3092.49,3332.02,350.56,354.27,21.35,0000 0000 0000 0000 000000
2014-10-26 10:07:31,0.01,0.82,0.00,23.26,27.50,30.31,4.91,26.83,1035.00,2033.01,3089.95,3092.02,3331.98,350.52,354.11,21.38,0000 0000 0000 0000 000000
2014-10-26 10:12:32,0.05,0.82,0.00,23.22,27.52,30.28,4.89,26.81,1034.83,2033.00,3089.16,3091.96,3331.26,349.83,353.58,21.41,0000 0000 0000 0000 000000
2014-10-26 10:17:33,0.04,0.82,0.00,23.22,27.52,30.30,4.88,26.90,1034.76,2033.00,3088.92,3091.19,3330.98,349.89,353.57,21.44,0000 0000 0000 0000 000000
2014-10-26 10:22:34,0.04,0.82,0.00,23.23,27.52,30.37,4.90,26.91,1034.72,2033.00,3088.10,3091.00,3330.50,350.51,354.12,21.47,0000 0000 0000 0000 000000
2014-10-26 10:27:35,0.02,0.82,0.00,23.27,27.52,30.37,4.91,26.85,1034.72,2033.00,3087.83,3090.90,3330.02,350.39,353.84,21.50,0000 0000 0000 0000 000000
2014-10-26 10:32:37,0.06,0.82,0.00,23.25,27.54,30.38,4.84,26.89,1034.70,2033.00,3087.09,3090.22,3329.95,350.09,353.74,21.53,0000 0000 0000 0000 000000
2014-10-26 10:37:38,0.05,0.83,0.00,23.24,27.55,30.39,4.85,26.99,1034.69,2033.00,3086.66,3089.99,3329.17,349.69,352.96,21.56,0000 0000 0000 0000 000000
2014-10-26 10:42:40,0.03,0.83,0.00,23.25,27.55,30.40,4.85,26.74,1034.71,2033.00,3086.02,3089.75,3329.00,350.11,353.52,21.58,0000 0000 0000 0000 000000
2014-10-26 10:47:41,0.06,0.83,0.00,23.25,27.55,30.40,4.86,26.73,1034.71,2033.00,3085.78,3089.08,3328.47,349.80,353.45,21.61,0000 0000 0000 0000 000000
2014-10-26 10:52:42,0.02,0.83,0.00,23.27,27.56,30.44,4.86,26.74,1034.69,2033.00,3085.01,3088.97,3328.00,350.13,353.59,21.64,0000 0000 0000 0000 000000
2014-10-26 10:57:43,0.06,0.83,0.00,23.25,27.57,30.43,4.91,26.81,1034.68,2032.99,3084.48,3088.42,3327.89,350.46,353.92,21.67,0000 0000 0000 0000 000000
2014-10-26 11:02:44,0.03,0.83,0.00,23.25,27.57,30.42,4.89,26.88,1034.68,2032.99,3083.93,3088.01,3327.14,350.00,353.53,21.70,0000 0000 0000 0000 000000
2014-10-26 11:07:46,0.04,0.83,0.00,23.25,27.57,30.43,4.91,26.75,1034.68,2032.99,3083.12,3087.82,3326.99,350.67,354.31,21.73,0000 0000 0000 0000 000000
2014-10-26 11:12:47,0.06,0.84,0.00,23.26,27.58,30.42,4.85,26.85,1034.66,2032.98,3082.74,3087.11,3326.60,349.78,353.62,21.76,0000 0000 0000 0000 000000
2014-10-26 11:17:48,0.02,0.84,0.00,23.26,27.60,30.43,4.91,26.89,1034.59,2032.98,3082.04,3086.99,3326.03,350.56,354.12,21.79,0000 0000 0000 0000 000000
2014-10-26 11:22:49,0.02,0.84,0.00,23.26,27.60,30.44,4.86,26.86,1034.57,2032.97,3081.84,3086.82,3325.97,349.92,353.35,21.82,0000 0000 0000 0000 000000
2014-10-26 11:27:51,0.06,0.84,0.00,23.26,27.61,30.43,4.84,26.83,1034.43,2032.96,3081.07,3086.12,3325.57,349.91,353.37,21.85,0000 0000 0000 0000 000000
2014-10-26 11:32:52,0.01,0.84,0.00,23.26,27.62,30.45,4.86,26.98,1034.26,2032.96,3080.97,3086.00,3325.03,350.03,353.35,21.88,0000 0000 0000 0000 000000
2014-10-26 11:37:53,0.06,0.84,0.00,23.26,27.62,30.43,4.93,27.01,1034.28,2032.96,3080.39,3085.71,3324.79,350.68,354.04,21.91,0000 0000 0000 0000 000000
2014-10-26 11:42:55,0.03,0.84,0.00,23.27,27.63,30.48,4.82,26.77,1034.28,2032.86,3079.71,3085.03,3324.04,349.56,353.09,21.94,0000 0000 0000 0000 000000
2014-10-26 11:47:56,0.01,0.84,0.00,23.27,27.65,30.49,4.85,26.86,1034.31,2032.79,3079.01,3084.91,3323.87,349.92,353.21,21.97,0000 0000 0000 0000 000000
2014-10-26 11:52:57,0.08,0.84,0.00,23.26,27.65,30.51,4.78,26.87,1034.32,2032.71,3078.34,3084.19,3323.12,349.81,353.26,22.00,0000 0000 0000 0000 000000
2014-10-26 11:57:58,-0.02,0.85,0.00,23.26,27.65,30.51,4.90,26.84,1034.23,2032.56,3077.89,3084.00,3322.94,349.89,353.43,22.02,0000 0000 0000 0000 000000
2014-10-26 12:02:59,0.08,0.85,0.00,23.27,27.67,30.53,4.83,26.77,1034.21,2032.56,3077.10,3083.62,3322.21,350.38,353.68,22.05,0000 0000 0000 0000 000000
2014-10-26 12:08:00,-0.00,0.85,0.00,23.27,27.67,30.54,4.89,26.90,1034.21,2032.39,3076.32,3083.02,3321.96,349.86,353.30,22.08,0000 0000 0000 0000 000000
2014-10-26 12:13:01,0.06,0.85,0.00,23.28,27.67,30.52,4.91,26.88,1034.21,2032.23,3075.70,3082.75,3321.29,350.29,353.67,22.11,0000 0000 0000 0000 000000
2014-10-26 12:18:02,0.02,0.85,0.00,23.25,27.69,30.52,4.87,26.92,1034.21,2032.12,3075.00,3082.07,3320.98,349.90,353.50,22.14,0000 0000 0000 0000 000000
2014-10-26 12:23:03,0.06,0.85,0.00,23.30,27.70,30.51,4.75,26.85,1034.21,2032.11,3074.20,3081.89,3320.30,349.68,353.17,22.17,0000 0000 0000 0000 000000
2014-10-26 12:28:04,0.06,0.85,0.00,23.29,27.70,30.57,4.92,26.84,1034.20,2032.09,3073.43,3081.09,3319.89,350.29,353.56,22.20,0000 0000 0000 0000 000000
2014-10-26 12:33:06,0.09,0.86,0.00,23.28,27.70,30.54,4.87,26.87,1034.20,2032.06,3072.32,3080.35,3318.95,350.30,353.76,22.23,0000 0000 0000 0000 000000
2014-10-26 12:38:07,0.09,0.86,0.00,23.30,27.71,30.58,4.85,27.08,1034.20,2032.03,3071.16,3079.53,3317.98,350.21,353.39,22.26,0000 0000 0000 0000 000000
2014-10-26 12:43:08,0.11,0.86,0.00,23.26,27.72,30.59,4.78,26.84,1034.20,2032.01,3069.76,3078.62,3316.94,349.78,352.91,22.29,0000 0000 0000 0000 000000
2014-10-26 12:48:10,0.09,0.86,0.00,23.25,27.72,30.55,4.81,26.81,1034.20,2032.00,3068.42,3077.73,3316.04,349.56,352.94,22.32,0000 0000 0000 0000 000000
2014-10-26 12:53:11,0.07,0.87,0.00,23.31,27.72,30.57,4.81,26.73,1034.20,2032.00,3067.47,3077.00,3315.19,349.64,352.82,22.35,0000 0000 0000 0000 000000
2014-10-26 12:58:12,0.10,0.87,0.00,23.26,27.72,30.55,4.86,26.74,1034.20,2032.00,3066.27,3076.16,3314.41,349.78,353.03,22.38,0000 0000 0000 0000 000000